{"data":{"norad_id":67201,"intl_designator":"2025-304K","name":"STARLINK-36262","alt_names":[],"object_type":"PAYLOAD","status":"ACTIVE","operator":null,"country":"US","launch_date":"2025-12-17","launch_site_code":"AFWTR","launch_vehicle":null,"mission":null,"orbit_class":"UNKNOWN","rcs_meters":null,"size_class":null,"mass_kg":null,"dimensions":null,"purposes":["comms"],"wikipedia_slug":null,"has_3d_model":false,"image_url":null,"decayed_at":null,"tle_current":{"epoch":"2026-05-24T22:45:32.679360Z","epoch_age_seconds":93657,"freshness":"FRESH","line1":"1 67201U 25304K   26144.94829490  .00002060  00000+0  18034-3 0  9998","line2":"2 67201  70.0021 342.3369 0002221 267.3814  92.7091 14.98332580 25307","mean_motion":14.9833258,"eccentricity":0.0002221,"inclination_deg":70.0021,"raan_deg":342.3369,"arg_perigee_deg":267.3814,"mean_anomaly_deg":92.7091,"bstar":0.00018034,"rev_number":2530,"period_min":96.106833637696,"perigee_km":570.50427644962,"apogee_km":573.59154858776,"semimajor_km":6950.1849125187,"source":"CELESTRAK","updated_at":"2026-05-25T13:38:21.508866Z"}}}